Temperature
19 19 19 18 18 18 18 18 18 18 18 18 18 18 18 18 18 18 18 18 18 18 18 18 18 18 18 18 18 18 18 18 18 18 18 18 18 18 18 18 17 17 18
19 18 19 18 18 18 18 18 18 18 18 18 18 18 18 18 18 18 18 18 18 18 18 18 18 18 18 18 18 18 18 18 18 18 18 18 18 17 18 17 17 17 18
19 18 18 18 18 18 18 18 18 18 18 18 18 18 18 18 18 18 18 18 18 18 18 18 18 18 18 18 18 18 18 18 18 18 17 17 17 17 17 17 17 17 17
19 18 18 18 18 18 18 18 18 18 18 18 18 18 18 18 18 18 18 18 18 18 18 18 18 18 18 18 18 18 18 18 18 18 17 17 17 17 17 17 17 17 17
18 18 18 18 18 18 18 18 18 18 18 18 18 18 18 18 18 18 18 18 18 18 18 18 18 18 18 18 18 18 18 18 18 17 17 17 17 17 17 17 17 17 17
19 18 18 18 18 18 18 18 18 18 18 18 18 18 18 18 18 18 18 18 18 18 18 18 18 18 18 18 18 18 18 18 17 17 17 17 17 17 17 17 17 17 17
19 18 18 18 18 18 18 18 18 18 18 18 18 18 18 18 18 18 18 18 18 18 18 18 18 18 18 18 18 18 18 17 17 17 17 17 17 17 17 17 17 17 17
19 19 18 18 18 18 18 18 18 18 18 18 18 18 18 18 18 18 18 18 18 18 18 18 18 18 18 18 18 18 18 17 17 17 17 17 17 17 17 17 17 17 17
19 19 18 18 18 18 18 18 18 18 18 18 18 18 17 17 17 17 17 17 17 18 18 18 18 18 18 18 18 18 18 17 17 17 17 17 17 17 17 17 17 17 17
19 19 18 18 18 18 18 18 18 18 17 17 17 17 17 17 17 17 17 17 17 17 17 17 17 17 17 18 18 18 18 17 17 17 17 17 17 17 17 17 17 17 17
19 18 18 18 18 18 17 17 17 17 17 17 17 17 17 17 17 17 17 17 17 17 17 17 17 17 17 17 18 17 17 17 17 17 17 17 17 17 17 17 17 17 17
19 18 18 18 18 18 17 17 17 17 17 17 17 17 17 17 17 17 17 17 17 17 17 17 17 17 17 17 17 17 17 17 17 17 17 17 17 17 17 17 17 17 17
19 18 18 18 17 17 17 17 17 17 17 17 17 17 17 17 17 17 17 17 17 17 17 17 17 17 17 17 17 17 17 17 17 17 17 17 17 17 17 17 17 17 17
19 18 18 18 17 17 17 17 17 17 17 17 17 17 17 17 17 17 17 17 17 17 17 17 17 17 17 17 17 17 17 17 17 17 17 17 17 17 17 17 17 17 17
19 18 18 18 17 17 17 17 17 17 17 17 17 17 17 17 17 17 17 17 17 17 17 17 17 17 17 17 17 17 17 17 17 17 17 17 17 17 17 17 17 17 16
19 18 18 17 18 18 17 17 17 17 17 17 17 17 17 17 17 17 17 17 17 17 17 17 17 17 17 17 17 17 17 17 17 17 17 17 17 17 17 17 17 17 17
19 18 18 18 17 18 17 17 17 17 17 17 17 17 17 17 17 17 17 17 17 17 17 17 17 17 17 17 17 17 17 17 17 17 17 17 17 17 17 17 17 17 16
19 18 18 18 18 18 17 17 17 17 17 17 17 17 17 17 17 17 17 17 17 17 17 17 17 17 17 17 17 17 17 17 17 17 17 16 16 16 17 17 17 17 17
18 18 18 18 18 18 17 17 17 17 17 17 17 17 17 17 17 17 17 17 17 17 17 17 17 17 17 17 17 17 17 17 17 17 17 17 17 16 16 17 17 17 17
18 18 18 18 18 18 18 17 17 17 17 17 17 17 17 17 17 17 17 17 17 17 17 17 17 17 17 17 17 17 17 17 17 17 17 17 16 16 16 16 16 16 17
19 18 18 18 18 18 17 17 17 17 17 17 17 17 17 17 17 17 17 17 17 17 17 17 17 17 17 17 17 17 17 17 17 17 17 17 17 16 16 16 16 16 16
19 19 18 18 18 18 18 18 18 18 17 17 17 17 17 17 17 17 17 17 17 17 17 17 17 17 17 17 17 18 18 17 17 17 17 17 17 17 16 16 16 16 16
19 19 19 18 18 18 18 18 18 18 18 17 17 18 18 18 17 17 17 17 17 17 17 17 17 17 17 17 17 18 18 18 18 17 17 17 17 17 16 16 16 16 16
20 19 19 19 19 18 18 18 18 18 18 18 18 18 18 18 17 17 17 17 17 17 17 17 17 17 17 17 17 17 17 18 18 18 17 17 17 16 16 16 16 16 16
20 20 19 19 19 19 18 18 18 18 18 18 18 18 18 18 17 17 17 17 17 17 17 17 17 17 17 17 17 17 17 17 17 18 18 17 17 17 16 16 16 16 16
21 20 19 19 19 19 19 18 18 18 18 18 18 18 18 17 17 18 18 18 17 17 17 17 17 17 17 17 17 17 17 17 18 18 18 17 17 17 16 16 16 16 16
Wind_Speed
4 6 9 6 6 7 9 9 9 9 9 9 9 10 11 11 11 11 13 14 14 15 16 18 18 18 18 17 18 17 18 18 18 18 18 18 18 17 17 16 15 15 16
4 7 9 7 7 8 9 10 9 10 9 9 10 10 11 11 11 11 13 14 15 16 17 18 18 18 18 18 18 17 17 17 17 18 18 18 17 16 14 12 11 15 16
5 7 8 9 8 8 9 9 9 9 9 9 10 10 11 11 11 12 14 14 15 17 18 18 18 18 18 18 17 17 17 17 17 16 16 16 16 15 14 13 14 16 16
5 6 8 9 8 8 9 9 9 9 9 9 9 10 11 11 11 13 14 14 15 17 18 18 18 18 17 17 17 16 16 16 16 14 12 13 14 15 14 14 14 14 14
6 6 9 8 8 7 8 9 9 9 9 8 9 9 10 11 12 14 14 15 16 17 17 17 17 17 17 16 16 15 15 15 14 11 12 12 13 15 14 14 14 14 13
6 6 10 8 7 7 8 8 8 8 8 8 9 10 11 11 12 14 14 15 15 16 16 17 16 16 16 15 15 15 15 14 12 11 11 11 13 15 14 14 13 13 12
7 7 9 9 7 7 8 8 8 8 9 10 11 11 11 12 13 13 13 14 14 15 15 15 15 15 14 14 14 14 13 11 9 10 10 11 13 15 14 13 13 12 12
7 8 9 9 8 8 8 8 8 8 9 11 11 12 12 13 13 13 13 13 13 13 13 14 14 14 13 13 13 13 12 9 10 10 10 11 14 13 13 13 12 12 11
6 7 7 7 8 8 8 8 7 8 9 10 11 12 12 13 13 13 12 12 12 12 13 14 14 13 13 13 13 13 11 8 8 9 10 10 14 13 12 12 12 11 10
6 6 6 6 7 7 8 9 8 8 8 9 10 11 11 12 12 12 12 11 12 13 13 14 13 13 12 12 12 12 12 9 7 9 8 11 14 12 12 11 11 11 10
5 5 5 5 5 6 8 9 8 8 7 7 9 10 8 9 10 10 12 12 12 13 13 13 13 12 11 12 12 11 9 6 7 6 8 14 13 11 11 10 10 10 10
5 4 5 5 5 5 6 7 6 5 6 6 6 7 8 8 8 10 12 12 12 12 12 12 11 10 7 8 11 10 6 7 7 7 10 15 12 11 11 10 10 9 9
5 4 5 5 5 5 4 5 4 4 5 5 6 8 8 8 8 8 8 9 9 9 8 9 8 6 6 6 5 6 5 5 5 6 11 14 12 11 10 10 9 9 9
4 4 5 5 5 4 4 4 4 4 4 5 6 7 7 6 6 6 5 6 6 6 6 5 5 6 6 6 5 5 5 4 5 5 10 13 11 10 10 9 8 8 9
4 4 4 5 5 4 4 2 4 4 4 5 6 6 6 6 6 6 5 4 5 5 5 4 5 5 5 5 5 5 4 5 5 5 9 12 11 10 9 8 8 8 8
4 4 5 5 5 4 4 3 3 4 4 4 5 6 6 6 6 6 5 4 4 4 4 4 5 4 4 4 4 4 4 5 5 4 6 9 10 9 9 8 8 7 7
5 5 5 5 5 5 4 4 4 4 5 4 5 6 5 6 6 5 4 4 4 5 5 4 5 4 4 4 4 4 4 4 4 4 4 5 7 10 9 8 8 7 7
5 5 5 5 6 5 4 3 3 3 4 4 5 5 5 5 5 4 4 4 4 4 4 4 4 4 3 3 3 2 3 3 4 4 5 5 5 6 9 9 8 7 7
6 6 6 5 5 5 5 4 3 3 2 3 4 4 5 5 5 4 3 4 4 4 4 4 5 4 4 3 3 3 2 2 3 4 4 5 5 5 5 9 9 7 7
7 7 6 6 5 5 5 4 3 3 3 3 4 4 5 5 5 4 4 5 4 4 3 3 4 3 3 3 2 2 2 2 2 2 3 4 4 5 5 5 7 8 8
7 8 7 7 7 5 4 4 4 4 3 3 3 5 5 4 5 4 3 4 4 3 4 4 4 4 3 3 2 2 2 3 2 2 2 2 4 4 4 5 5 5 7
9 8 8 8 8 7 5 4 3 3 3 4 3 4 4 4 4 5 3 4 4 4 4 4 4 2 3 3 2 2 2 3 2 2 3 3 3 3 4 5 4 5 4
9 9 8 9 8 7 6 5 4 4 3 4 4 4 4 4 4 3 3 3 3 4 4 4 4 4 3 3 2 2 1 1 2 3 2 2 3 3 3 4 5 5 5
10 10 9 9 8 8 7 6 6 5 4 4 3 4 4 4 4 4 4 3 3 3 3 4 4 3 4 4 3 2 2 1 2 2 3 4 4 3 3 3 4 4 5
10 10 10 10 9 9 8 7 6 5 4 4 4 4 4 4 4 4 4 4 4 4 4 4 3 4 4 4 4 3 3 3 4 3 2 3 3 3 3 3 3 3 4
11 10 10 10 10 9 9 8 7 6 5 4 5 5 5 4 4 5 5 5 5 4 4 4 4 6 5 5 4 4 4 4 4 3 3 3 3 3 3 3 3 4 5
Wind_Direction
46 54 73 61 71 83 91 93 99 100 99 99 106 113 111 111 110 113 118 123 126 130 132 131 131 130 130 129 128 127 127 128 128 128 128 126 124 124 124 128 130 118 119
66 74 86 77 78 85 88 89 96 97 96 96 100 110 110 108 107 110 118 121 123 128 130 131 132 131 131 131 130 129 128 131 131 131 132 129 127 126 125 125 115 119 124
81 84 93 86 84 87 91 93 98 97 94 94 96 105 106 104 106 112 117 120 121 125 129 131 131 132 132 131 129 129 129 131 133 137 145 134 129 128 126 121 116 123 125
85 85 84 86 85 88 93 95 97 100 97 97 98 101 101 100 103 115 116 119 121 125 129 130 132 132 133 131 129 130 130 131 138 154 143 130 132 129 129 127 126 127 128
89 89 92 90 90 94 96 97 97 100 99 100 102 101 100 99 103 114 116 117 119 124 129 132 134 134 132 132 132 131 132 136 149 155 129 129 126 130 132 132 131 129 130
99 93 92 92 92 95 100 100 96 95 100 104 104 103 103 102 106 112 114 116 117 120 124 128 131 133 133 133 134 135 137 148 160 131 131 133 127 134 136 136 135 132 132
97 95 94 95 91 93 100 100 95 95 96 103 102 101 104 106 109 112 113 115 118 121 123 129 134 134 134 137 139 140 143 154 139 131 134 129 127 135 139 139 138 136 135
95 93 95 108 99 92 98 103 99 98 97 101 99 98 103 107 112 114 115 116 120 122 124 127 132 132 132 137 140 141 145 158 137 135 132 125 126 137 139 140 139 139 136
89 93 99 106 108 106 101 102 104 101 100 104 103 100 104 109 113 116 118 119 122 122 123 124 125 131 131 134 138 141 145 156 145 133 131 127 134 141 142 142 142 143 144
92 93 96 99 105 108 107 109 100 101 101 105 110 108 112 116 120 121 120 118 119 121 123 123 126 129 129 133 140 144 151 166 140 134 128 128 139 146 148 149 151 154 154
93 93 94 97 102 105 106 107 108 112 111 115 116 119 127 121 117 122 111 114 118 120 117 116 120 126 133 134 136 144 163 149 129 124 122 126 143 151 154 156 157 158 160
117 112 105 103 102 103 103 109 114 114 115 111 110 118 120 114 113 112 113 115 117 119 118 117 123 139 151 135 140 158 147 140 133 133 127 135 148 155 159 160 161 162 166
127 116 115 111 115 107 105 113 114 115 116 113 107 111 114 118 121 120 124 127 126 132 129 129 144 140 131 119 122 131 133 137 135 135 132 144 157 164 166 168 171 173 175
131 124 118 122 120 103 101 112 125 119 117 114 111 115 123 123 123 123 127 123 127 127 123 129 121 122 121 121 123 126 137 146 136 126 133 148 161 167 170 173 176 177 177
138 137 124 127 123 123 121 119 114 108 113 111 112 115 123 128 126 125 121 121 124 127 135 126 115 115 117 122 126 125 130 129 129 134 134 150 163 169 173 173 171 175 177
151 144 137 141 135 134 134 126 118 120 118 116 119 118 123 126 123 127 133 132 129 132 119 121 120 126 130 120 118 115 125 121 123 134 138 150 163 168 172 175 177 177 182
159 153 151 149 140 142 143 145 132 132 129 122 122 124 129 131 128 132 133 139 131 132 131 131 129 133 141 135 128 129 131 132 135 142 153 156 159 167 172 178 184 186 189
160 159 163 156 147 149 147 147 133 121 120 126 130 131 128 128 135 142 143 139 140 146 138 137 145 139 140 138 130 134 134 142 154 159 164 165 165 158 165 177 186 195 197
171 170 170 161 156 158 154 158 146 129 125 133 132 135 132 141 144 151 145 132 151 146 145 154 136 143 142 132 134 141 149 162 167 170 165 169 164 170 170 164 180 194 196
172 174 174 171 167 168 165 164 158 146 148 148 144 139 145 154 156 159 157 151 160 151 146 135 133 143 144 143 147 126 150 167 176 166 173 165 170 182 186 180 181 181 184
174 175 178 177 171 176 176 179 172 164 163 155 157 148 155 162 158 169 162 156 170 159 154 152 150 150 154 155 158 148 151 155 151 168 178 176 174 185 190 191 195 186 179
178 179 180 180 177 183 178 181 173 160 162 154 151 147 159 162 169 170 170 179 168 162 166 162 170 176 178 186 203 197 178 162 172 174 177 186 185 184 193 195 192 194 207
182 183 184 184 181 186 182 181 169 162 173 161 164 164 167 170 173 171 170 187 177 189 175 183 192 199 200 199 228 254 238 181 162 165 182 193 193 197 205 190 196 194 204
185 183 184 183 185 186 187 190 186 184 180 173 177 166 166 172 176 176 180 184 193 196 181 203 201 210 211 208 200 236 271 306 226 178 189 190 197 214 227 223 212 204 205
183 181 181 183 185 187 192 190 197 199 189 176 174 165 179 179 190 193 189 192 199 205 203 218 211 222 218 225 222 207 208 218 238 231 205 196 197 211 218 225 225 219 209
183 183 180 180 184 187 191 194 201 202 198 185 181 181 188 186 191 194 195 200 210 213 207 217 221 221 229 232 241 239 228 226 226 232 230 224 218 209 214 222 225 218 214
Height
1516 1514 1511 1511 1510 1509 1509 1509 1509 1509 1509 1509 1509 1509 1509 1510 1510 1511 1511 1512 1514 1515 1518 1520 1523 1526 1530 1533 1535 1538 1541 1543 1546 1548 1550 1552 1554 1556 1558 1559 1561 1563 1563
1516 1515 1512 1512 1511 1511 1511 1511 1511 1511 1511 1511 1510 1510 1511 1511 1511 1512 1513 1514 1515 1516 1518 1521 1525 1528 1531 1534 1537 1539 1542 1544 1547 1550 1552 1553 1555 1558 1560 1561 1563 1564 1565
1517 1516 1515 1513 1513 1513 1513 1513 1513 1512 1512 1512 1511 1511 1512 1512 1512 1513 1515 1515 1516 1518 1520 1523 1526 1529 1532 1536 1538 1540 1543 1546 1549 1551 1554 1556 1557 1560 1561 1563 1564 1565 1567
1518 1518 1516 1515 1515 1515 1515 1515 1514 1514 1514 1514 1513 1513 1513 1514 1514 1515 1516 1517 1519 1520 1523 1525 1528 1531 1534 1537 1540 1542 1545 1547 1550 1553 1556 1558 1560 1561 1563 1564 1566 1567 1568
1520 1519 1518 1517 1517 1516 1516 1516 1516 1516 1515 1515 1515 1515 1515 1516 1516 1517 1518 1519 1521 1522 1524 1527 1529 1532 1535 1538 1541 1544 1546 1549 1551 1555 1557 1559 1561 1562 1564 1566 1567 1568 1570
1521 1521 1519 1518 1518 1518 1518 1517 1517 1517 1516 1515 1516 1516 1516 1517 1518 1520 1521 1522 1523 1525 1526 1528 1531 1534 1537 1539 1542 1545 1547 1550 1553 1556 1558 1560 1562 1563 1565 1567 1568 1570 1571
1523 1523 1521 1520 1520 1519 1519 1519 1518 1518 1517 1516 1517 1517 1517 1518 1520 1522 1523 1525 1526 1527 1528 1530 1533 1535 1538 1540 1543 1546 1549 1551 1555 1557 1559 1562 1562 1564 1566 1568 1569 1571 1572
1525 1524 1523 1521 1521 1521 1521 1520 1520 1520 1519 1519 1519 1519 1519 1521 1523 1525 1526 1527 1528 1529 1529 1531 1534 1536 1539 1541 1544 1547 1550 1552 1556 1558 1561 1562 1563 1565 1567 1568 1570 1571 1573
1526 1526 1525 1524 1523 1523 1522 1522 1522 1522 1521 1521 1521 1521 1522 1524 1525 1527 1528 1529 1530 1530 1531 1532 1534 1537 1540 1542 1545 1548 1551 1553 1557 1560 1562 1563 1563 1565 1567 1569 1571 1572 1573
1527 1527 1526 1526 1526 1526 1525 1523 1523 1523 1523 1523 1523 1523 1524 1526 1527 1529 1530 1531 1532 1532 1533 1534 1536 1539 1542 1544 1547 1550 1552 1555 1559 1561 1562 1563 1564 1566 1568 1569 1571 1572 1574
1527 1527 1528 1527 1527 1528 1527 1526 1525 1525 1525 1525 1525 1525 1526 1528 1529 1531 1532 1533 1534 1535 1536 1538 1539 1542 1545 1547 1549 1551 1554 1557 1560 1562 1563 1563 1565 1567 1568 1570 1572 1573 1574
1528 1528 1528 1529 1528 1529 1529 1528 1527 1527 1527 1526 1525 1525 1526 1529 1531 1533 1534 1535 1537 1538 1539 1541 1544 1546 1548 1550 1552 1553 1556 1558 1560 1562 1563 1564 1565 1567 1569 1570 1572 1573 1574
1529 1529 1529 1529 1529 1530 1530 1530 1529 1529 1529 1528 1527 1526 1528 1531 1534 1536 1538 1539 1540 1542 1543 1545 1547 1549 1551 1552 1554 1556 1558 1560 1561 1563 1564 1565 1566 1568 1569 1571 1572 1573 1574
1529 1530 1530 1530 1530 1530 1531 1531 1531 1531 1531 1531 1529 1530 1532 1534 1536 1538 1540 1542 1543 1545 1546 1548 1550 1551 1552 1554 1556 1558 1559 1561 1563 1564 1564 1565 1566 1568 1569 1570 1572 1573 1573
1529 1530 1530 1530 1530 1531 1531 1532 1533 1532 1533 1533 1532 1533 1534 1537 1539 1541 1542 1544 1545 1547 1548 1549 1551 1553 1554 1556 1558 1559 1561 1562 1563 1564 1565 1565 1567 1568 1569 1570 1572 1572 1573
1530 1530 1531 1531 1531 1531 1532 1533 1533 1534 1534 1536 1536 1537 1537 1539 1541 1543 1544 1546 1547 1549 1550 1551 1553 1554 1556 1557 1558 1560 1561 1562 1563 1564 1565 1566 1567 1568 1569 1570 1571 1572 1572
1530 1530 1530 1531 1531 1532 1533 1534 1535 1536 1536 1537 1537 1538 1540 1542 1543 1544 1546 1548 1549 1551 1551 1553 1554 1556 1557 1559 1560 1561 1562 1562 1564 1564 1566 1567 1568 1568 1569 1570 1570 1571 1572
1529 1530 1530 1532 1532 1533 1534 1535 1537 1538 1538 1538 1539 1540 1541 1543 1544 1545 1547 1549 1550 1552 1553 1554 1556 1557 1558 1559 1560 1561 1562 1563 1564 1564 1566 1566 1567 1568 1568 1569 1569 1570 1571
1528 1529 1530 1532 1533 1534 1535 1536 1537 1538 1539 1540 1541 1542 1543 1544 1546 1547 1548 1549 1551 1552 1554 1555 1556 1557 1559 1560 1561 1561 1562 1563 1564 1565 1565 1566 1567 1567 1568 1568 1568 1569 1570
1527 1528 1530 1531 1532 1534 1536 1537 1538 1539 1539 1540 1542 1542 1544 1545 1546 1548 1549 1550 1552 1553 1554 1555 1556 1557 1559 1560 1561 1562 1562 1563 1563 1564 1565 1565 1566 1567 1567 1568 1568 1568 1568
1526 1527 1529 1530 1532 1534 1535 1537 1538 1539 1540 1541 1542 1543 1544 1546 1547 1548 1550 1551 1552 1554 1554 1556 1557 1558 1559 1560 1561 1562 1562 1562 1563 1563 1564 1565 1565 1565 1566 1566 1567 1567 1567
1525 1526 1528 1529 1531 1533 1535 1537 1538 1539 1541 1542 1543 1543 1544 1546 1547 1549 1549 1551 1552 1553 1554 1555 1556 1558 1559 1560 1561 1561 1562 1564 1563 1563 1563 1564 1564 1564 1565 1565 1565 1565 1566
1524 1525 1527 1529 1531 1533 1535 1537 1538 1539 1540 1542 1542 1543 1544 1546 1547 1548 1549 1551 1551 1553 1554 1555 1556 1557 1558 1559 1560 1561 1561 1561 1562 1563 1562 1563 1563 1563 1563 1563 1563 1564 1564
1522 1524 1526 1528 1530 1532 1534 1536 1537 1539 1540 1541 1542 1544 1544 1545 1547 1548 1549 1550 1551 1552 1553 1554 1556 1556 1557 1558 1559 1559 1560 1560 1561 1561 1562 1561 1561 1561 1561 1562 1562 1562 1562
1521 1523 1525 1527 1529 1531 1533 1535 1536 1538 1540 1541 1542 1543 1544 1545 1546 1547 1548 1549 1550 1551 1552 1553 1554 1555 1556 1557 1557 1558 1558 1558 1559 1559 1559 1560 1560 1559 1559 1559 1560 1560 1560
1520 1522 1524 1525 1527 1529 1531 1533 1535 1537 1539 1540 1541 1542 1543 1544 1545 1546 1547 1548 1549 1550 1551 1551 1552 1553 1553 1554 1555 1556 1556 1557 1557 1557 1556 1556 1557 1557 1557 1557 1557 1557 1557